[[{"header":{"parameterUnit":"m.s-1","parameterCategory":2,"la1":30.2991,"la2":30.254,"lo1":-89.0895,"lo2":-89.0444,"dy":0.0017,"dx":0.0017,"nx":28,"ny":28,"refTime":"2024-08-27T03:00:00:Z","depth":"0","parameterNumber":2,"parameterNumberName":"U-component_of_CURRENTS"},"data":[0,0,0,0,0,0,0,0,0,0,0,0,0,0,0,0,0,0,0,0,0,0,0,0,0,0,0,0,0,0,0,0,0,0,0,0,0,0,0,0,0,0,0,0,0,0,0,0,0,0,0,0,0,0,0,0,0,0,0.265,0.2651,0,0.2712,0.2713,0.2713,0.2733,0.2733,0.2733,0.2733,0.2724,0.2724,0.2724,0,0,0,0,0,0,0,0,0,0,0,0,0,0.2549,0.255,0.265,0.2651,0.2652,0.2712,0.2713,0.2713,0.2733,0.2733,0.2733,0.2734,0.2725,0.2724,0.2724,0,0,0,0,0,0,0,0,0,0,0,0,0,0.2597,0.2551,0.265,0.2672,0.2675,0.2712,0.2713,0.2714,0.2733,0.2733,0.2733,0.2734,0.2725,0.2724,0.2724,0.272,0,0,0.2723,0.2722,0,0,0,0,0,0,0,0,0.2594,0.26,0.2668,0.267,0.2674,0.2718,0.2674,0.2713,0.2733,0.2707,0.2733,0.2734,0.2718,0.2718,0.2726,0.272,0.2719,0.2722,0.2722,0.2722,0.2722,0,0,0,0,0,0,0,0.2591,0.2598,0.2671,0.2669,0.2673,0.268,0.2686,0.2682,0.2707,0.271,0.2712,0.2725,0.2719,0.2726,0.2726,0.2719,0.2723,0.2722,0.2722,0.2722,0.275,0.2751,0,0,0,0,0,0,0.259,0.2595,0.2669,0.2673,0.2637,0.2681,0.2689,0.2701,0.2709,0.2712,0.2725,0.2725,0.2727,0.2726,0.2725,0.2752,0.2722,0.2722,0.2721,0.2749,0.2751,0.2752,0,0,0,0,0,0,0.2588,0.2596,0.2667,0.2638,0.2648,0.2684,0.2697,0.2702,0.2717,0.2722,0.2723,0.2735,0.2727,0.2726,0.2736,0.2751,0.2722,0.2721,0.2748,0.275,0.2751,0.2786,0,0,0,0,0,0,0.2585,0.2595,0.2603,0.2638,0.265,0.2697,0.2698,0.2704,0.2726,0.2728,0.2731,0.273,0.2727,0.2736,0.2735,0.2749,0.2721,0.2747,0.2749,0.2751,0.2783,0.2788,0.2792,0,0,0,0,0,0.2581,0.2593,0.2603,0.2613,0.266,0.2698,0.2705,0.2727,0.2727,0.2739,0.2743,0.2731,0.2748,0.2737,0.2735,0.275,0.2746,0.2748,0.2751,0.2781,0.2787,0.2792,0,0,0,0,0,0,0.2549,0.2598,0.2609,0.2634,0.2668,0.2703,0.2714,0.273,0.2744,0.274,0.274,0.274,0.2756,0.2749,0.2737,0.2765,0.2746,0.2748,0.277,0.2775,0.278,0.2778,0.272,0,0,0,0,0,0.2548,0.2571,0.2616,0.2635,0.265,0.2681,0.2699,0.2716,0.2736,0.2742,0.2744,0.2749,0.2764,0.2766,0.2771,0.2781,0.2791,0.2791,0.2796,0.28,0.2798,0.2837,0.2845,0.2759,0.2759,0.2759,0,0,0.2538,0.257,0.2581,0.263,0.2652,0.2675,0.2691,0.2719,0.2738,0.2737,0.275,0.2762,0.2771,0.279,0.2796,0.2784,0.2832,0.2803,0.2806,0.2802,0.284,0.2848,0.2855,0.2761,0.276,0.276,0,0,0.2528,0.2559,0.2573,0.2604,0.2648,0.2672,0.2682,0.2718,0.2734,0.2754,0.2765,0.279,0.2793,0.2817,0.2827,0.2858,0.2857,0.2858,0.2876,0.2914,0.2921,0.2927,0.2962,0.2972,0.2858,0.2858,0.2858,0,0.2512,0.2541,0.2582,0.2605,0.2627,0.2669,0.2684,0.2713,0.2748,0.2765,0.2758,0.2801,0.2809,0.2854,0.287,0.2869,0.2887,0.2854,0.292,0.2926,0.2932,0.2966,0.2976,0.286,0.286,0.286,0.286,0,0.2513,0.2539,0.2549,0.2593,0.2622,0.2645,0.2692,0.2719,0.2738,0.2767,0.2809,0.2831,0.286,0.2872,0.2879,0.2933,0.2932,0.2923,0.2905,0.2943,0.2977,0.2986,0.2863,0.2862,0.2862,0.2861,0,0,0.2467,0.2535,0.2537,0.2558,0.2618,0.2642,0.2681,0.2733,0.2764,0.2796,0.2837,0.2876,0.2897,0.2911,0.2932,0.2965,0.3031,0.2962,0.2963,0.2995,0.3117,0.31,0.3109,0.3035,0.3036,0.3037,0.3127,0,0.2451,0.2485,0.2526,0.2557,0.2578,0.2636,0.2671,0.2726,0.2768,0.2819,0.2867,0.2911,0.2911,0.2936,0.2971,0.3027,0.3056,0.3008,0.3076,0.3078,0.3057,0.3119,0.3033,0.3104,0.3136,0.3138,0.3139,0,0.2435,0.2465,0.2488,0.2552,0.2564,0.2592,0.2662,0.2703,0.2792,0.2822,0.288,0.2926,0.3007,0.2987,0.3092,0.3063,0.3087,0.3115,0.3119,0.3095,0.3079,0.3069,0.312,0.3072,0.3153,0.3152,0.3151,0,0.2384,0.2438,0.2456,0.2477,0.2552,0.2577,0.2621,0.2703,0.2754,0.2839,0.2894,0.2968,0.304,0.3079,0.3158,0.3129,0.3263,0.323,0.3232,0.3231,0.3166,0.3156,0.3174,0.3278,0.3278,0.3277,0.3277,0,0.236,0.2374,0.2437,0.245,0.248,0.2546,0.2592,0.2648,0.2746,0.281,0.2901,0.2978,0.3068,0.3164,0.3186,0.3261,0.329,0.325,0.3259,0.3176,0.3167,0.3127,0.3096,0.3281,0.328,0.3279,0.3279,0,0.2309,0.2348,0.2372,0.2439,0.246,0.2484,0.2579,0.2621,0.2724,0.2818,0.2858,0.3023,0.3147,0.3234,0.3326,0.3319,0.3289,0.3373,0.3274,0.3268,0.3195,0.3168,0.3056,0.2957,0.3384,0.3384,0.3384,0,0.2283,0.2292,0.2348,0.2365,0.2397,0.2445,0.2483,0.2586,0.2641,0.2839,0.2886,0.3068,0.3162,0.3325,0.3359,0.3411,0.3305,0.3339,0.3255,0.3195,0.3173,0.3026,0.2939,0.3191,0.3189,0.3188,0.3187,0,0.2236,0.2257,0.2282,0.2315,0.235,0.2383,0.245,0.2494,0.2625,0.2725,0.2865,0.297,0.3169,0.322,0.3325,0.3331,0.3192,0.3314,0.3279,0.3049,0.2863,0.2771,0.3131,0.3177,0.3178,0.3179,0.3179,0.318,0.2196,0.2203,0.2238,0.2262,0.2292,0.2312,0.231,0.24,0.2477,0.2606,0.2763,0.2883,0.3068,0.3217,0.3207,0.3184,0.3123,0.3108,0.3092,0.2958,0.2814,0.3154,0.3189,0.319,0.3191,0.3192,0.3193,0,0.2149,0.2167,0.2185,0.22,0.2189,0.2234,0.2275,0.2262,0.2305,0.2482,0.2586,0.2784,0.2887,0.3006,0.3098,0.3002,0.2818,0.2923,0.2704,0.2637,0.2985,0.2931,0.2878,0.2878,0.2878,0.2878,0.2879,0.2879,0.2132,0.2129,0.2136,0.2092,0.2093,0.2043,0.2039,0.2048,0.2135,0.2255,0.2379,0.2533,0.2812,0.3005,0.2987,0.2898,0.2657,0.2539,0.2501,0.2787,0.2802,0.2817,0.2759,0.2672,0.2672,0.2039,0.2035,0.2032]},{"header":{"parameterUnit":"m.s-1","parameterCategory":2,"la1":30.2991,"la2":30.254,"lo1":-89.0895,"lo2":-89.0444,"dy":0.0017,"dx":0.0017,"nx":28,"ny":28,"refTime":"2024-08-27T03:00:00:Z","depth":"0","parameterNumber":3,"parameterNumberName":"V-component_of_CURRENTS"},"data":[0,0,0,0,0,0,0,0,0,0,0,0,0,0,0,0,0,0,0,0,0,0,0,0,0,0,0,0,0,0,0,0,0,0,0,0,0,0,0,0,0,0,0,0,0,0,0,0,0,0,0,0,0,0,0,0,0,0,0.0174,0.0174,0,0.0113,0.0112,0.0111,0.0055,0.0054,0.0054,0.0053,-0.0033,-0.0035,-0.0037,0,0,0,0,0,0,0,0,0,0,0,0,0,0.0185,0.0185,0.0174,0.0174,0.0173,0.0113,0.0112,0.0111,0.0055,0.0054,0.0054,0.0053,-0.0033,-0.0035,-0.0037,0,0,0,0,0,0,0,0,0,0,0,0,0,0.0155,0.0185,0.0175,0.014,0.0137,0.0113,0.0112,0.011,0.0055,0.0054,0.0054,0.0053,-0.0032,-0.0035,-0.0037,-0.0043,0,0,-0.0046,-0.0047,0,0,0,0,0,0,0,0,0.0157,0.0154,0.0146,0.0143,0.0139,0.0093,0.0084,0.0059,0.0055,0.0083,0.0053,0.0053,0.0009,0.0003,-0.0011,-0.0047,-0.0051,-0.0046,-0.0048,-0.0049,-0.005,0,0,0,0,0,0,0,0.0159,0.0156,0.0147,0.0146,0.0141,0.0108,0.0103,0.0078,0.0048,0.008,0.0077,0.0075,0.0007,-0.0008,-0.0014,-0.0052,-0.0046,-0.0049,-0.0051,-0.0052,-0.0094,-0.0093,0,0,0,0,0,0,0.0176,0.0159,0.0149,0.0146,0.015,0.0109,0.0103,0.0106,0.0048,0.004,0.0076,0.0073,-0.0003,-0.001,-0.0017,-0.0008,-0.0049,-0.0052,-0.0054,-0.0094,-0.0094,-0.0093,0,0,0,0,0,0,0.0177,0.0176,0.0152,0.0152,0.0147,0.011,0.0113,0.0105,0.0095,0.0045,0.0036,0.0074,-0.0004,-0.0013,-0.0032,-0.0012,-0.0053,-0.0056,-0.0095,-0.0094,-0.0093,-0.0001,0,0,0,0,0,0,0.0177,0.0177,0.0182,0.0154,0.0148,0.0151,0.0114,0.0105,0.0096,0.0092,0.0041,0.0032,-0.0005,-0.0028,-0.0035,-0.0017,-0.0058,-0.0096,-0.0095,-0.0094,-0.0005,0.0003,0.0009,0,0,0,0,0,0.0178,0.0197,0.0182,0.0181,0.0157,0.0152,0.0146,0.0115,0.0097,0.0101,0.0064,0.0034,-0.0026,-0.0029,-0.0038,-0.002,-0.0096,-0.0095,-0.0094,-0.0008,0.0001,0.0009,0,0,0,0,0,0,0.0206,0.0193,0.0176,0.019,0.0176,0.0144,0.0145,0.0125,0.0098,0.0092,0.0041,0.003,0.0019,-0.0013,-0.0016,-0.003,-0.0066,-0.0066,0.0002,0.0011,0.0018,0.0029,-0.0061,0,0,0,0,0,0.0216,0.0223,0.0204,0.0214,0.0211,0.0178,0.0171,0.0153,0.0128,0.0115,0.0081,0.0044,0.0018,0.0005,-0.0026,-0.003,-0.0072,-0.0026,-0.0018,-0.0012,-0.001,-0.0055,-0.0051,-0.0088,-0.0088,-0.0088,0,0,0.0229,0.0222,0.0226,0.022,0.0203,0.0209,0.0172,0.0172,0.0176,0.0111,0.0105,0.0068,0.0021,0.0013,0.0006,-0.001,-0.0022,-0.001,-0.0004,-0.0006,-0.0053,-0.0049,-0.0046,-0.0087,-0.0088,-0.0088,0,0,0.0266,0.0255,0.0274,0.0266,0.0254,0.0237,0.0244,0.022,0.0208,0.02,0.0154,0.0132,0.0092,0.0064,0.0045,0.0074,0.0016,0.0064,0.0113,0.007,0.0073,0.0074,0.0033,0.003,0.0071,0.0071,0.0071,0,0.0281,0.03,0.0279,0.0292,0.0291,0.0257,0.0276,0.0263,0.0236,0.0231,0.0212,0.0152,0.0118,0.0103,0.0113,0.0092,0.0053,0.0087,0.008,0.0081,0.0081,0.0038,0.0033,0.0075,0.0075,0.0074,0.0074,0,0.0328,0.034,0.0352,0.0355,0.0353,0.0365,0.0347,0.0348,0.033,0.0308,0.0291,0.0241,0.0205,0.0195,0.0164,0.0153,0.0121,0.0094,0.0061,0.0091,0.0043,0.0037,0.0082,0.008,0.0079,0.0078,0,0,0.0368,0.0383,0.0385,0.0396,0.0387,0.0393,0.0408,0.0407,0.0418,0.0385,0.0389,0.0345,0.0308,0.0283,0.024,0.0208,0.0183,0.0159,0.0154,0.0123,0.0084,0.0084,0.0076,0.0151,0.015,0.015,0.0052,0,0.0409,0.0452,0.0444,0.0479,0.0499,0.0475,0.0495,0.0487,0.0469,0.0466,0.0415,0.0398,0.0345,0.0333,0.0292,0.0214,0.017,0.0212,0.0054,0.0049,0.0051,0.0071,0.0091,0.0007,0.0046,0.0045,0.0044,0,0.0454,0.0478,0.0522,0.0547,0.0553,0.0569,0.0584,0.0594,0.0578,0.0561,0.0526,0.0482,0.0439,0.0387,0.0262,0.0289,0.0192,0.0124,0.0118,0.0081,0.0039,-0.0019,-0.0006,-0.0171,0.0034,0.0035,0.0036,0,0.0493,0.053,0.0568,0.0574,0.0598,0.0618,0.0631,0.0626,0.065,0.0619,0.0635,0.055,0.0535,0.0403,0.0277,0.0262,0.0134,0.0092,-0.0007,-0.0008,-0.0041,-0.0043,-0.0201,-0.0013,-0.0013,-0.0013,-0.0013,0,0.0539,0.0568,0.0593,0.0615,0.0674,0.0665,0.0718,0.0715,0.0727,0.0775,0.0688,0.0716,0.0539,0.0455,0.0302,0.0146,0.0148,0.0005,-0.0031,-0.0007,-0.0005,-0.0191,-0.0283,-0.0017,-0.0016,-0.0015,-0.0014,0,0.0576,0.0589,0.0639,0.0677,0.0695,0.0736,0.0796,0.0836,0.0834,0.0895,0.0899,0.0842,0.0735,0.0549,0.0347,0.0204,-0.0057,-0.0029,0.0016,-0.0011,-0.0255,-0.034,-0.0541,-0.0614,-0.0159,-0.0159,-0.016,0,0.06,0.063,0.0687,0.0731,0.0753,0.0815,0.0869,0.0887,0.094,0.0993,0.1039,0.0965,0.0947,0.0649,0.0361,0.0082,-0.0078,-0.0082,-0.0109,-0.0262,-0.0385,-0.0449,-0.05,-0.0122,-0.0122,-0.0122,-0.0122,0,0.0653,0.0668,0.0713,0.0804,0.0868,0.0943,0.1024,0.1089,0.1134,0.1202,0.1283,0.1278,0.1007,0.0742,0.0356,0.0168,-0.0188,-0.0092,-0.0271,-0.038,-0.0444,-0.0531,-0.0069,-0.0123,-0.0123,-0.0123,-0.0123,-0.0123,0.0693,0.0739,0.0803,0.0888,0.0965,0.1073,0.1153,0.1253,0.1372,0.1495,0.1473,0.1496,0.11,0.0584,0.0294,-0.0211,-0.0223,-0.036,-0.0456,-0.051,-0.0567,-0.0097,-0.0175,-0.0175,-0.0175,-0.0175,-0.0176,0,0.0758,0.0811,0.0889,0.0995,0.1084,0.1114,0.1259,0.1354,0.1518,0.163,0.1703,0.1532,0.1045,0.0547,-0.0143,-0.0507,-0.0638,-0.0702,-0.0805,-0.0844,-0.0446,-0.043,-0.0541,-0.054,-0.054,-0.054,-0.054,-0.054,0.0799,0.0886,0.0924,0.1079,0.1152,0.1284,0.1373,0.1526,0.1638,0.1787,0.1812,0.1799,0.1436,0.0179,-0.0677,-0.0871,-0.1116,-0.1174,-0.1312,-0.1058,-0.1033,-0.101,-0.1017,-0.1249,-0.125,-0.1654,-0.1658,-0.1661]}],[{"header":{"parameterUnit":"m.s-1","parameterCategory":2,"la1":30.2991,"la2":30.254,"lo1":-89.0895,"lo2":-89.0444,"dy":0.0017,"dx":0.0017,"nx":28,"ny":28,"refTime":"2024-08-27T03:00:00:Z","depth":"2","parameterNumber":2,"parameterNumberName":"U-component_of_CURRENTS"},"data":[0,0,0,0,0,0,0,0,0,0,0,0,0,0,0,0,0,0,0,0,0,0,0,0,0,0,0,0,0,0,0,0,0,0,0,0,0,0,0,0,0,0,0,0,0,0,0,0,0,0,0,0,0,0,0,0,0,0,0.2421,0.2422,0,0.2476,0.2477,0.2477,0.2531,0.2532,0.2533,0.2534,0.2547,0.2546,0.2545,0,0,0,0,0,0,0,0,0,0,0,0,0,0.2355,0.2356,0.2421,0.2422,0.2423,0.2476,0.2477,0.2477,0.2531,0.2532,0.2533,0.2534,0.2547,0.2546,0.2545,0,0,0,0,0,0,0,0,0,0,0,0,0,0.2392,0.2356,0.2421,0.2458,0.2462,0.2476,0.2477,0.2477,0.2531,0.2532,0.2534,0.2535,0.2547,0.2546,0.2545,0.2511,0,0,0.2543,0.2542,0,0,0,0,0,0,0,0,0.239,0.2394,0.2452,0.2456,0.246,0.2501,0.2458,0.2487,0.253,0.2502,0.2534,0.2536,0.2528,0.2529,0.2533,0.2512,0.2512,0.2543,0.2542,0.2542,0.2542,0,0,0,0,0,0,0,0.2387,0.2392,0.244,0.2453,0.2458,0.247,0.2477,0.2464,0.2503,0.2504,0.2509,0.2519,0.253,0.2533,0.2533,0.2512,0.2543,0.2542,0.2541,0.2541,0.2577,0.2578,0,0,0,0,0,0,0.2385,0.2389,0.2438,0.2442,0.2431,0.247,0.2478,0.2484,0.2504,0.251,0.2518,0.2522,0.2534,0.2534,0.2534,0.2575,0.2542,0.2541,0.254,0.2575,0.2577,0.2579,0,0,0,0,0,0,0.2383,0.2388,0.2436,0.2419,0.2427,0.247,0.2477,0.2484,0.2503,0.2516,0.252,0.2531,0.2535,0.2535,0.2555,0.2572,0.2541,0.254,0.2574,0.2576,0.2578,0.2604,0,0,0,0,0,0,0.2381,0.2387,0.2394,0.2419,0.2428,0.2461,0.2476,0.2484,0.2508,0.2513,0.2528,0.253,0.2536,0.2556,0.2554,0.2571,0.2539,0.2572,0.2575,0.2577,0.2602,0.2607,0.2612,0,0,0,0,0,0.2378,0.2381,0.2393,0.24,0.2434,0.2462,0.2467,0.2501,0.2507,0.252,0.254,0.253,0.2573,0.2556,0.2553,0.257,0.2571,0.2574,0.2577,0.2599,0.2606,0.2612,0,0,0,0,0,0,0.2353,0.2388,0.2402,0.2415,0.2444,0.2472,0.2491,0.2501,0.2524,0.2543,0.2538,0.2542,0.257,0.2565,0.2547,0.2593,0.2573,0.2576,0.2591,0.2598,0.2603,0.261,0.2538,0,0,0,0,0,0.235,0.2372,0.2399,0.2417,0.243,0.2457,0.2473,0.2503,0.2526,0.2539,0.2542,0.256,0.2576,0.2584,0.2598,0.2607,0.2613,0.2622,0.2627,0.2631,0.2638,0.2666,0.2674,0.2589,0.2589,0.2589,0,0,0.2343,0.2371,0.2381,0.2415,0.2441,0.2456,0.2471,0.2514,0.2532,0.2534,0.2556,0.2574,0.2584,0.2614,0.2625,0.2613,0.266,0.2635,0.2638,0.2643,0.267,0.2678,0.2685,0.2592,0.2591,0.2591,0,0,0.2341,0.2369,0.2382,0.2407,0.2459,0.2478,0.2488,0.2522,0.2548,0.2571,0.2588,0.2627,0.2623,0.2656,0.2665,0.2702,0.2687,0.2699,0.2726,0.2752,0.2759,0.2765,0.2786,0.2793,0.27,0.27,0.27,0,0.2331,0.2355,0.239,0.2408,0.2434,0.2481,0.2497,0.2522,0.2561,0.2581,0.2589,0.263,0.265,0.2687,0.2718,0.2714,0.2717,0.2697,0.2758,0.2764,0.277,0.2789,0.2797,0.2702,0.2701,0.2701,0.2701,0,0.2336,0.2357,0.2372,0.241,0.2436,0.2474,0.2512,0.2549,0.2579,0.2596,0.2645,0.2682,0.271,0.2725,0.2735,0.2787,0.2772,0.276,0.2737,0.2779,0.2798,0.2806,0.2704,0.2703,0.2703,0.2702,0,0,0.2299,0.2362,0.2365,0.2387,0.2452,0.2472,0.2519,0.2564,0.2597,0.2635,0.2669,0.2723,0.2746,0.2762,0.2783,0.2817,0.2877,0.2809,0.2809,0.2821,0.2926,0.2903,0.2909,0.2864,0.2866,0.2867,0.2923,0,0.2294,0.2325,0.2362,0.2393,0.2411,0.248,0.2507,0.2561,0.2614,0.2659,0.2712,0.2752,0.2754,0.2791,0.2822,0.2875,0.2898,0.2863,0.2891,0.2893,0.286,0.2918,0.2703,0.2733,0.293,0.2932,0.2933,0,0.2279,0.2308,0.2335,0.2396,0.2409,0.2436,0.2521,0.256,0.2638,0.2681,0.2734,0.2769,0.2846,0.284,0.2921,0.2892,0.2913,0.2939,0.2941,0.2916,0.2884,0.2724,0.274,0.2946,0.2945,0.2944,0.2943,0,0.2236,0.2287,0.2315,0.2335,0.2402,0.2441,0.2486,0.2565,0.2615,0.2709,0.2764,0.2817,0.2888,0.2911,0.2978,0.2952,0.3057,0.3024,0.3011,0.3009,0.2832,0.2812,0.3064,0.3064,0.3064,0.3064,0.3064,0,0.2219,0.2234,0.23,0.2314,0.2355,0.2414,0.2474,0.2539,0.2634,0.269,0.2772,0.2838,0.2913,0.298,0.2996,0.3042,0.3069,0.3033,0.303,0.2837,0.2818,0.3003,0.2995,0.3066,0.3066,0.3065,0.3065,0,0.2164,0.221,0.2238,0.231,0.2336,0.2367,0.2469,0.2512,0.2618,0.2711,0.2749,0.2881,0.2975,0.3033,0.3107,0.3088,0.312,0.3118,0.2892,0.2862,0.3043,0.3036,0.3107,0.3107,0.3107,0.3107,0.3107,0,0.214,0.2151,0.222,0.2245,0.2284,0.2341,0.2383,0.2491,0.2544,0.2724,0.2761,0.2908,0.297,0.3083,0.3092,0.3115,0.3142,0.2915,0.2833,0.3062,0.3051,0.3044,0.3038,0.2604,0.26,0.2597,0.2594,0,0.2098,0.2127,0.2156,0.22,0.2248,0.2285,0.2359,0.2396,0.2526,0.2611,0.2727,0.2802,0.2945,0.2891,0.2953,0.2925,0.2895,0.2848,0.3145,0.2639,0.2595,0.2583,0.2591,0.2563,0.2566,0.2569,0.257,0.2571,0.2068,0.2076,0.2123,0.2154,0.2197,0.2219,0.222,0.2299,0.2362,0.245,0.2587,0.2631,0.2703,0.2698,0.2633,0.2602,0.2792,0.2655,0.2661,0.2673,0.2617,0.2576,0.253,0.2532,0.2535,0.2537,0.2539,0,0.2029,0.2047,0.2075,0.21,0.2096,0.2154,0.2188,0.2159,0.218,0.2299,0.2363,0.2229,0.223,0.2296,0.2222,0.2245,0.2177,0.2138,0.2023,0.2059,0.2089,0.1997,0.1749,0.1746,0.1743,0.174,0,0,0.2013,0.2016,0.2019,0.1993,0.2005,0.1971,0.1965,0.1942,0.1987,0.1956,0.1972,0.2141,0.2264,0.1977,0.1959,0.1842,0.1923,0.1771,0.2418,0.2322,0.2348,0.2419,0.2324,0,0,0,0,0]},{"header":{"parameterUnit":"m.s-1","parameterCategory":2,"la1":30.2991,"la2":30.254,"lo1":-89.0895,"lo2":-89.0444,"dy":0.0017,"dx":0.0017,"nx":28,"ny":28,"refTime":"2024-08-27T03:00:00:Z","depth":"2","parameterNumber":3,"parameterNumberName":"V-component_of_CURRENTS"},"data":[0,0,0,0,0,0,0,0,0,0,0,0,0,0,0,0,0,0,0,0,0,0,0,0,0,0,0,0,0,0,0,0,0,0,0,0,0,0,0,0,0,0,0,0,0,0,0,0,0,0,0,0,0,0,0,0,0,0,0.0005,0.0004,0,-0.0057,-0.0058,-0.0059,-0.0096,-0.0096,-0.0096,-0.0096,-0.0191,-0.0194,-0.0196,0,0,0,0,0,0,0,0,0,0,0,0,0,0.0032,0.0032,0.0005,0.0004,0.0004,-0.0057,-0.0058,-0.0059,-0.0096,-0.0096,-0.0096,-0.0096,-0.019,-0.0193,-0.0196,0,0,0,0,0,0,0,0,0,0,0,0,0,-0.0001,0.0032,0.0005,-0.0021,-0.0024,-0.0057,-0.0058,-0.006,-0.0096,-0.0096,-0.0096,-0.0096,-0.019,-0.0193,-0.0197,-0.0218,0,0,-0.0208,-0.021,0,0,0,0,0,0,0,0,0.0001,-0.0002,-0.0017,-0.0019,-0.0023,-0.0068,-0.0084,-0.0114,-0.0096,-0.007,-0.0096,-0.0096,-0.0152,-0.0159,-0.0172,-0.0222,-0.0226,-0.0208,-0.0211,-0.0212,-0.0213,0,0,0,0,0,0,0,0.0004,0.0,-0.0021,-0.0017,-0.0021,-0.0051,-0.0055,-0.009,-0.0111,-0.0072,-0.0074,-0.008,-0.0154,-0.0168,-0.0174,-0.0228,-0.0208,-0.0212,-0.0214,-0.0215,-0.0287,-0.0287,0,0,0,0,0,0,0.0017,0.0003,-0.0019,-0.0023,-0.001,-0.0051,-0.0056,-0.0054,-0.011,-0.0118,-0.008,-0.0081,-0.0162,-0.017,-0.0178,-0.0183,-0.0212,-0.0216,-0.0218,-0.0288,-0.0287,-0.0287,0,0,0,0,0,0,0.0018,0.0016,-0.0016,-0.0011,-0.0017,-0.005,-0.0049,-0.0055,-0.0065,-0.0115,-0.0124,-0.0082,-0.0162,-0.0173,-0.0199,-0.0188,-0.0217,-0.0221,-0.0288,-0.0287,-0.0287,-0.0208,0,0,0,0,0,0,0.0019,0.0017,0.002,-0.001,-0.0017,-0.0025,-0.0049,-0.0057,-0.0068,-0.0071,-0.0121,-0.013,-0.0163,-0.0193,-0.0203,-0.0193,-0.0224,-0.0288,-0.0288,-0.0287,-0.0211,-0.0205,-0.0199,0,0,0,0,0,0.002,0.0032,0.0021,0.0018,-0.0009,-0.0025,-0.0031,-0.0056,-0.0068,-0.0067,-0.0099,-0.0128,-0.0196,-0.0196,-0.0207,-0.0199,-0.0289,-0.0288,-0.0287,-0.0213,-0.0206,-0.02,0,0,0,0,0,0,0.0047,0.0028,0.0016,0.0022,0.0004,-0.003,-0.003,-0.005,-0.0076,-0.0073,-0.0126,-0.0137,-0.0156,-0.019,-0.0188,-0.0218,-0.0247,-0.0248,-0.0187,-0.018,-0.0175,-0.015,-0.0227,0,0,0,0,0,0.0055,0.006,0.0034,0.0039,0.0034,0.0003,-0.0008,-0.002,-0.0047,-0.0058,-0.0094,-0.0131,-0.0163,-0.018,-0.0213,-0.0231,-0.0264,-0.0233,-0.0227,-0.0222,-0.021,-0.0252,-0.0248,-0.0284,-0.0284,-0.0284,0,0,0.0067,0.0058,0.006,0.0045,0.0031,0.003,-0.0003,-0.0004,-0.0005,-0.0065,-0.0074,-0.0112,-0.0164,-0.018,-0.0192,-0.0206,-0.0229,-0.0221,-0.0216,-0.0206,-0.0251,-0.0247,-0.0244,-0.0284,-0.0284,-0.0284,0,0,0.0096,0.0088,0.0101,0.009,0.0077,0.006,0.0063,0.0037,0.0027,0.0012,-0.0031,-0.0055,-0.0108,-0.0136,-0.0161,-0.0144,-0.0198,-0.0162,-0.0113,-0.0153,-0.015,-0.0148,-0.0183,-0.0185,-0.0158,-0.0158,-0.0158,0,0.011,0.0125,0.0101,0.011,0.011,0.0078,0.0093,0.0075,0.0044,0.0037,0.0023,-0.0046,-0.0083,-0.0111,-0.0101,-0.0129,-0.0164,-0.0132,-0.0145,-0.0143,-0.0143,-0.0179,-0.0182,-0.0154,-0.0155,-0.0155,-0.0155,0,0.0147,0.0156,0.0166,0.0167,0.0162,0.0176,0.0151,0.0151,0.0135,0.0107,0.0084,0.0034,-0.0005,-0.0023,-0.0056,-0.0071,-0.0101,-0.0132,-0.0158,-0.0134,-0.0174,-0.0178,-0.0149,-0.015,-0.0151,-0.0152,0,0,0.0184,0.0192,0.0195,0.0207,0.02,0.0202,0.0212,0.0205,0.0212,0.0174,0.0176,0.0121,0.009,0.0062,0.0015,-0.0017,-0.0037,-0.0064,-0.0068,-0.009,-0.0128,-0.0136,-0.0142,-0.0076,-0.0076,-0.0077,-0.0157,0,0.0222,0.0255,0.0249,0.0281,0.0296,0.0281,0.0291,0.0279,0.0261,0.0253,0.0198,0.0176,0.012,0.0112,0.0071,-0.0008,-0.0045,-0.0012,-0.0155,-0.0159,-0.0162,-0.0146,-0.0117,-0.0186,-0.0162,-0.0163,-0.0163,0,0.026,0.0279,0.0321,0.0344,0.0351,0.0368,0.039,0.0393,0.0367,0.0354,0.0319,0.0266,0.0221,0.0174,0.005,0.007,-0.0016,-0.0082,-0.0088,-0.0123,-0.0175,-0.0208,-0.0195,-0.0171,-0.0171,-0.017,-0.017,0,0.0298,0.0328,0.0369,0.0376,0.0395,0.0423,0.0437,0.0427,0.0446,0.042,0.0432,0.0344,0.0327,0.0202,0.0072,0.0056,-0.0065,-0.0109,-0.0202,-0.0204,-0.022,-0.0222,-0.0197,-0.0197,-0.0196,-0.0196,-0.0196,0,0.0342,0.037,0.0395,0.0418,0.0478,0.047,0.0528,0.0529,0.054,0.0577,0.0489,0.0498,0.0334,0.0242,0.01,-0.0053,-0.005,-0.0184,-0.0222,-0.0191,-0.019,-0.0212,-0.0212,-0.0199,-0.0199,-0.0198,-0.0198,0,0.0374,0.039,0.0438,0.0477,0.05,0.0542,0.0607,0.0642,0.0643,0.0698,0.0699,0.0618,0.0501,0.0326,0.0136,0.0003,-0.0156,-0.0216,-0.0162,-0.0191,-0.0279,-0.0275,-0.0331,-0.0332,-0.0333,-0.0334,-0.0334,0,0.0394,0.0422,0.0485,0.0531,0.0559,0.0623,0.0674,0.0698,0.0743,0.0775,0.0807,0.0718,0.0662,0.0375,0.0127,-0.0122,-0.0156,-0.0257,-0.028,-0.026,-0.0291,-0.0286,-0.0281,-0.0275,-0.0275,-0.0275,-0.0275,0,0.0438,0.046,0.0505,0.0593,0.0663,0.0735,0.0811,0.0866,0.0908,0.0951,0.0985,0.0944,0.069,0.0436,0.0104,-0.0061,-0.0215,-0.0265,-0.0262,-0.0238,-0.0212,-0.0241,-0.0237,-0.0275,-0.0275,-0.0275,-0.0275,-0.0275,0.0473,0.0511,0.0577,0.066,0.0743,0.0838,0.0908,0.0987,0.1073,0.1139,0.1105,0.1059,0.0783,0.0355,0.0063,-0.0225,-0.0218,-0.0322,-0.0321,-0.0319,-0.029,-0.0266,-0.0335,-0.0335,-0.0335,-0.0335,-0.0336,0,0.0514,0.0559,0.0638,0.0738,0.0825,0.0872,0.0992,0.1046,0.1156,0.1222,0.124,0.099,0.071,0.0404,-0.0029,-0.0298,-0.0315,-0.0371,-0.0339,-0.0337,-0.0335,-0.0306,-0.0356,-0.0357,-0.0358,-0.0358,0,0,0.0536,0.0609,0.064,0.0785,0.0866,0.0987,0.1061,0.1147,0.1213,0.1246,0.1243,0.1183,0.082,0.0503,0.0136,-0.0111,-0.0158,-0.0152,-0.0105,-0.0022,-0.0017,-0.0275,-0.0224,0,0,0,0,0]}],[{"header":{"parameterUnit":"m.s-1","parameterCategory":2,"la1":30.2991,"la2":30.254,"lo1":-89.0895,"lo2":-89.0444,"dy":0.0017,"dx":0.0017,"nx":28,"ny":28,"refTime":"2024-08-27T03:00:00:Z","depth":"4","parameterNumber":2,"parameterNumberName":"U-component_of_CURRENTS"},"data":[0,0,0,0,0,0,0,0,0,0,0,0,0,0,0,0,0,0,0,0,0,0,0,0,0,0,0,0,0,0,0,0,0,0,0,0,0,0,0,0,0,0,0,0,0,0,0,0,0,0,0,0,0,0,0,0,0,0,0.1308,0.1309,0,0.1356,0.1356,0.1356,0.1396,0.1397,0.1398,0.1399,0.1482,0.1483,0.1485,0,0,0,0,0,0,0,0,0,0,0,0,0,0.1254,0.1255,0.1308,0.1309,0.131,0.1356,0.1356,0.1356,0.1396,0.1397,0.1398,0.1399,0.1481,0.1483,0.1485,0,0,0,0,0,0,0,0,0,0,0,0,0,0.1283,0.1255,0.1308,0.1338,0.1342,0.1356,0.1356,0.1356,0.1396,0.1397,0.1399,0.14,0.1481,0.1483,0.1485,0.1474,0,0,0.1492,0.1493,0,0,0,0,0,0,0,0,0.1282,0.1285,0.1333,0.1336,0.134,0.1375,0.1368,0.1399,0.1396,0.1371,0.1399,0.14,0.1451,0.1456,0.1456,0.1478,0.1482,0.1492,0.1493,0.1494,0.1495,0,0,0,0,0,0,0,0.128,0.1283,0.1323,0.1334,0.1338,0.1351,0.1356,0.1373,0.1401,0.1373,0.1377,0.1389,0.1453,0.1454,0.1458,0.1483,0.1492,0.1494,0.1495,0.1496,0.1605,0.1606,0,0,0,0,0,0,0.128,0.1281,0.1321,0.1325,0.1318,0.1351,0.1357,0.1359,0.14,0.1409,0.1388,0.1391,0.1449,0.1456,0.1461,0.155,0.1494,0.1496,0.1497,0.1603,0.1605,0.1607,0,0,0,0,0,0,0.1279,0.1283,0.1319,0.1308,0.1314,0.1351,0.1354,0.136,0.1399,0.1412,0.142,0.1426,0.145,0.1458,0.1511,0.155,0.1497,0.1499,0.1601,0.1604,0.1606,0.1664,0,0,0,0,0,0,0.1277,0.1282,0.1299,0.1307,0.1315,0.135,0.1353,0.136,0.1404,0.1409,0.1447,0.1453,0.1452,0.1508,0.1513,0.1552,0.1501,0.1599,0.1602,0.1605,0.166,0.1668,0.1674,0,0,0,0,0,0.1275,0.129,0.1299,0.1305,0.1331,0.1351,0.1356,0.1384,0.1405,0.1424,0.1456,0.1454,0.1531,0.1511,0.1517,0.1557,0.1598,0.1601,0.1605,0.1656,0.1666,0.1674,0,0,0,0,0,0,0.1277,0.1296,0.1306,0.1327,0.1349,0.136,0.139,0.1405,0.1443,0.1462,0.1473,0.1481,0.154,0.1541,0.1519,0.1597,0.1565,0.157,0.1602,0.1611,0.1618,0.1609,0.1503,0,0,0,0,0,0.1284,0.1299,0.1319,0.1338,0.1357,0.138,0.14,0.1416,0.1444,0.1464,0.1492,0.1524,0.1551,0.1577,0.1596,0.164,0.1644,0.1671,0.1678,0.1684,0.1682,0.1717,0.1727,0.1618,0.1618,0.1618,0,0,0.129,0.1304,0.1314,0.1341,0.1365,0.1392,0.1396,0.1435,0.1462,0.1467,0.153,0.1552,0.1568,0.1616,0.1643,0.1629,0.1722,0.1689,0.1694,0.1688,0.1722,0.1733,0.1742,0.1621,0.162,0.162,0,0,0.1302,0.1327,0.1346,0.1369,0.1411,0.1424,0.1445,0.148,0.1507,0.1556,0.157,0.1615,0.1662,0.1678,0.169,0.175,0.1756,0.177,0.1807,0.1842,0.1851,0.1859,0.1893,0.1904,0.1778,0.1778,0.1778,0,0.1317,0.1335,0.1356,0.1384,0.1411,0.1445,0.1475,0.1502,0.1549,0.1576,0.1588,0.1665,0.1684,0.1734,0.176,0.1766,0.1791,0.1771,0.1851,0.1859,0.1866,0.1899,0.191,0.1782,0.1781,0.1781,0.1781,0,0.1333,0.1364,0.1384,0.1426,0.1455,0.149,0.1527,0.157,0.1612,0.1635,0.1704,0.1729,0.1775,0.1794,0.1799,0.1865,0.1869,0.1853,0.1826,0.1881,0.1912,0.1922,0.1786,0.1785,0.1784,0.1783,0,0,0.1323,0.1384,0.1395,0.142,0.1483,0.1502,0.1562,0.1613,0.1661,0.1709,0.1766,0.1816,0.1842,0.1858,0.1877,0.191,0.199,0.1916,0.1916,0.1945,0.2084,0.197,0.197,0.1999,0.2001,0.2002,0.2091,0,0.1337,0.1384,0.1415,0.1469,0.1498,0.155,0.1599,0.1651,0.1706,0.1771,0.1806,0.187,0.1864,0.1907,0.1939,0.1982,0.2018,0.1968,0.203,0.2031,0.192,0.1978,0.2008,0.2098,0.2101,0.2102,0.2104,0,0.1338,0.137,0.1424,0.1488,0.151,0.1555,0.164,0.1688,0.1778,0.1826,0.1889,0.1926,0.1998,0.1979,0.2067,0.2045,0.2072,0.2089,0.2093,0.1968,0.1935,0.203,0.2121,0.212,0.2119,0.2118,0.2116,0,0.1298,0.1372,0.1415,0.1439,0.1522,0.1567,0.1623,0.1712,0.1765,0.1875,0.193,0.2004,0.2066,0.2103,0.2152,0.213,0.2236,0.2204,0.2119,0.2112,0.2161,0.2151,0.2253,0.2253,0.2253,0.2252,0.2252,0,0.1281,0.1317,0.1408,0.143,0.1489,0.1559,0.1639,0.1705,0.1814,0.1875,0.1964,0.2016,0.2105,0.2171,0.2188,0.2191,0.227,0.2131,0.2126,0.2186,0.2178,0.2169,0.2158,0.2256,0.2255,0.2254,0.2254,0,0.1224,0.1286,0.1335,0.1436,0.1471,0.1516,0.164,0.1692,0.1813,0.1898,0.1942,0.2066,0.215,0.2216,0.2294,0.2234,0.2247,0.2226,0.2307,0.2304,0.209,0.2082,0.2131,0.2128,0.2125,0.2123,0.2121,0,0.1196,0.1218,0.1325,0.1357,0.141,0.1493,0.1545,0.1675,0.1732,0.1901,0.1927,0.2065,0.2127,0.215,0.2226,0.2257,0.2226,0.2218,0.2122,0.2087,0.2078,0.2074,0.2069,0.2116,0.2116,0.2115,0.2114,0,0.1136,0.1188,0.1229,0.1299,0.1362,0.1417,0.1509,0.1537,0.1682,0.1807,0.1874,0.1925,0.2019,0.2075,0.2128,0.2135,0.2211,0.2188,0.2192,0.2102,0.207,0.2063,0.2061,0.2104,0.2106,0.2107,0.2107,0,0.1096,0.1108,0.1173,0.1223,0.1292,0.132,0.1377,0.1447,0.152,0.1704,0.1722,0.1864,0.1993,0.2014,0.2055,0.2067,0.2024,0.1942,0.1958,0.197,0.1875,0.1807,0.1764,0,0,0,0,0,0.1049,0.1051,0.1089,0.1135,0.12,0.1245,0.1341,0.1404,0.1538,0.1543,0.1632,0.1707,0.178,0.1858,0.1839,0.1983,0.203,0.1951,0.1942,0.2051,0.2062,0.1965,0,0,0,0,0,0,0.1014,0.1045,0.1054,0.1051,0.1071,0.1131,0.1187,0.1278,0.1292,0.1438,0.149,0.1609,0.171,0.1781,0.181,0.1834,0.1793,0.2048,0.2044,0.2045,0.2055,0.2064,0.1968,0,0,0,0,0]},{"header":{"parameterUnit":"m.s-1","parameterCategory":2,"la1":30.2991,"la2":30.254,"lo1":-89.0895,"lo2":-89.0444,"dy":0.0017,"dx":0.0017,"nx":28,"ny":28,"refTime":"2024-08-27T03:00:00:Z","depth":"4","parameterNumber":3,"parameterNumberName":"V-component_of_CURRENTS"},"data":[0,0,0,0,0,0,0,0,0,0,0,0,0,0,0,0,0,0,0,0,0,0,0,0,0,0,0,0,0,0,0,0,0,0,0,0,0,0,0,0,0,0,0,0,0,0,0,0,0,0,0,0,0,0,0,0,0,0,-0.0011,-0.0011,0,-0.006,-0.0061,-0.0061,-0.0085,-0.0085,-0.0085,-0.0085,-0.0169,-0.0171,-0.0173,0,0,0,0,0,0,0,0,0,0,0,0,0,0.0014,0.0014,-0.0011,-0.0011,-0.0012,-0.006,-0.0061,-0.0062,-0.0085,-0.0085,-0.0085,-0.0085,-0.0168,-0.0171,-0.0174,0,0,0,0,0,0,0,0,0,0,0,0,0,-0.0012,0.0014,-0.0011,-0.003,-0.0032,-0.006,-0.0061,-0.0062,-0.0085,-0.0085,-0.0085,-0.0085,-0.0167,-0.0171,-0.0174,-0.0195,0,0,-0.0184,-0.0186,0,0,0,0,0,0,0,0,-0.0011,-0.0013,-0.0026,-0.0028,-0.0031,-0.0067,-0.0083,-0.0108,-0.0085,-0.0064,-0.0085,-0.0085,-0.0138,-0.0144,-0.0152,-0.0199,-0.0202,-0.0185,-0.0187,-0.0188,-0.0189,0,0,0,0,0,0,0,-0.0009,-0.0011,-0.003,-0.0027,-0.003,-0.0053,-0.0056,-0.0088,-0.0101,-0.0066,-0.0068,-0.0074,-0.014,-0.0149,-0.0155,-0.0204,-0.0185,-0.0188,-0.019,-0.0191,-0.0286,-0.0286,0,0,0,0,0,0,-0.0001,-0.0009,-0.0029,-0.0032,-0.0021,-0.0053,-0.0057,-0.0055,-0.01,-0.0107,-0.0074,-0.0075,-0.0143,-0.0151,-0.0158,-0.0185,-0.0188,-0.0191,-0.0193,-0.0285,-0.0286,-0.0286,0,0,0,0,0,0,0.0,-0.0001,-0.0027,-0.0022,-0.0027,-0.0053,-0.0051,-0.0056,-0.0066,-0.0106,-0.0113,-0.0079,-0.0144,-0.0153,-0.0187,-0.0189,-0.0193,-0.0196,-0.0285,-0.0285,-0.0286,-0.0241,0,0,0,0,0,0,0.0001,-0.0001,0.0002,-0.0021,-0.0027,-0.0039,-0.0052,-0.0057,-0.007,-0.0072,-0.0113,-0.0121,-0.0144,-0.0182,-0.019,-0.0194,-0.0198,-0.0284,-0.0285,-0.0286,-0.0242,-0.024,-0.0239,0,0,0,0,0,0.0003,0.0007,0.0002,-0.0,-0.0022,-0.0039,-0.0044,-0.0063,-0.007,-0.0073,-0.0103,-0.0119,-0.0194,-0.0185,-0.0195,-0.0199,-0.0283,-0.0285,-0.0286,-0.0243,-0.024,-0.0239,0,0,0,0,0,0,0.0018,0.0005,-0.0001,-0.0001,-0.0017,-0.0043,-0.0048,-0.0062,-0.0087,-0.0089,-0.0126,-0.0136,-0.0167,-0.0192,-0.0181,-0.0231,-0.0242,-0.0245,-0.0206,-0.0204,-0.0202,-0.0175,-0.0201,0,0,0,0,0,0.0023,0.0024,0.0005,0.0005,-0.0,-0.0024,-0.0034,-0.0046,-0.0071,-0.0081,-0.0111,-0.0146,-0.018,-0.0198,-0.023,-0.0257,-0.0273,-0.0268,-0.0266,-0.0265,-0.025,-0.028,-0.0279,-0.029,-0.029,-0.029,0,0,0.0029,0.0021,0.0021,0.0008,-0.0005,-0.0008,-0.003,-0.004,-0.0044,-0.0088,-0.0105,-0.0142,-0.0186,-0.0214,-0.0231,-0.0235,-0.0271,-0.0266,-0.0264,-0.025,-0.0281,-0.028,-0.0279,-0.0291,-0.0291,-0.029,0,0,0.0041,0.0035,0.0041,0.0031,0.0015,0.0002,0.0001,-0.0023,-0.0034,-0.0058,-0.0091,-0.0127,-0.0176,-0.0206,-0.0228,-0.0239,-0.0262,-0.0254,-0.0223,-0.0252,-0.0251,-0.025,-0.0267,-0.0268,-0.0253,-0.0252,-0.0252,0,0.0046,0.0055,0.0038,0.004,0.0039,0.0011,0.0019,0.0001,-0.0033,-0.004,-0.0057,-0.0127,-0.017,-0.0201,-0.0207,-0.0234,-0.0248,-0.0224,-0.0248,-0.0247,-0.0247,-0.0265,-0.0267,-0.025,-0.0251,-0.0251,-0.0251,0,0.0063,0.0069,0.0072,0.0071,0.0066,0.0067,0.0047,0.0038,0.002,-0.0002,-0.0035,-0.0091,-0.0129,-0.0156,-0.0186,-0.0208,-0.0217,-0.024,-0.0246,-0.0243,-0.0263,-0.0265,-0.0248,-0.0248,-0.0249,-0.0249,0,0,0.0078,0.0084,0.0085,0.0097,0.0086,0.0087,0.0084,0.0075,0.0079,0.0034,0.0033,-0.0039,-0.0066,-0.0093,-0.0139,-0.0169,-0.0191,-0.0198,-0.0201,-0.0202,-0.0243,-0.0245,-0.0248,-0.0215,-0.0215,-0.0216,-0.0256,0,0.0097,0.0117,0.0114,0.0137,0.0149,0.0134,0.0139,0.0125,0.0105,0.0094,0.0036,0.0011,-0.0043,-0.0059,-0.0098,-0.0168,-0.0195,-0.0177,-0.0256,-0.0258,-0.025,-0.025,-0.0216,-0.0258,-0.0259,-0.0259,-0.0259,0,0.0115,0.013,0.0159,0.0184,0.0189,0.0197,0.0211,0.0211,0.0186,0.0171,0.0137,0.0092,0.0039,-0.0005,-0.0107,-0.009,-0.0156,-0.0211,-0.0214,-0.0229,-0.0265,-0.0265,-0.0264,-0.0264,-0.0263,-0.0263,-0.0263,0,0.0139,0.0163,0.0192,0.0198,0.0217,0.0232,0.0243,0.0233,0.0246,0.0223,0.0226,0.0155,0.0126,0.0035,-0.0084,-0.0093,-0.0191,-0.0221,-0.0281,-0.0282,-0.0287,-0.0288,-0.0282,-0.0282,-0.0282,-0.0282,-0.0282,0,0.016,0.0185,0.0208,0.0224,0.0269,0.027,0.0308,0.0308,0.0314,0.0334,0.0271,0.0263,0.0135,0.0057,-0.0053,-0.017,-0.0169,-0.0266,-0.0292,-0.0269,-0.0267,-0.0289,-0.0289,-0.0284,-0.0283,-0.0283,-0.0283,0,0.0178,0.0192,0.023,0.0263,0.0281,0.0312,0.0361,0.0385,0.0388,0.0413,0.0412,0.0346,0.0246,0.0115,-0.0034,-0.0123,-0.0241,-0.0283,-0.0233,-0.0256,-0.0318,-0.0316,-0.0346,-0.0347,-0.0347,-0.0347,-0.0347,0,0.0188,0.0208,0.0261,0.0291,0.0308,0.0358,0.0393,0.042,0.0449,0.0458,0.0472,0.0395,0.033,0.0138,-0.0015,-0.0207,-0.0245,-0.0298,-0.0322,-0.0303,-0.0325,-0.0322,-0.0319,-0.0348,-0.0348,-0.0348,-0.0348,0,0.0204,0.0221,0.0253,0.0316,0.0361,0.042,0.0472,0.0502,0.0533,0.054,0.0527,0.0426,0.0317,0.015,0.0005,-0.0142,-0.026,-0.0302,-0.0303,-0.0326,-0.0305,-0.0326,-0.0323,-0.0349,-0.0349,-0.0349,-0.0349,0,0.0213,0.0236,0.0276,0.0333,0.0396,0.0456,0.0487,0.0527,0.0562,0.0576,0.0568,0.045,0.0387,0.0183,0.0043,-0.0094,-0.0139,-0.019,-0.0197,-0.0198,-0.0154,-0.0106,-0.0101,0,0,0,0,0,0.0215,0.0237,0.0289,0.035,0.0415,0.0453,0.0528,0.0554,0.0589,0.0592,0.0588,0.0487,0.0292,0.0205,0.007,0.0009,-0.0181,-0.0157,-0.0248,-0.0355,-0.0354,-0.0329,0,0,0,0,0,0,0.0211,0.0254,0.0281,0.0354,0.0397,0.0471,0.0519,0.0546,0.0554,0.0571,0.0474,0.0443,0.0252,0.0368,0.0063,0.0021,-0.0058,-0.0243,-0.0246,-0.0356,-0.0355,-0.0354,-0.0328,0,0,0,0,0]}]]